{"data":{"norad_id":68041,"epoch":"2026-05-25T03:51:35.745696Z","epoch_age_seconds":71213,"freshness":"FRESH","line1":"1 68041U 26041B   26145.16083039  .00042181  00000+0  12523-2 0  9990","line2":"2 68041  53.1585  52.7301 0001091  96.8207 263.2920 15.34405145 13122","mean_motion":15.34405145,"eccentricity":0.0001091,"inclination_deg":53.1585,"raan_deg":52.7301,"arg_perigee_deg":96.8207,"mean_anomaly_deg":263.292,"bstar":0.0012523,"rev_number":1312,"period_min":93.847443401267,"perigee_km":461.94161422372,"apogee_km":463.43428222743,"semimajor_km":6840.8249482256,"source":"CELESTRAK","updated_at":"2026-05-25T13:38:21.810099Z"}}